Whiteman AFB, MO

8:02 AM CDT on July 17, 2019 (GMT -0500)
Whiteman Air Force Base

Weather History for KSZL - May, 2019

Change the Weather History Date:

Thursday, May 23, 2019

  Actual Average Record
Temperature  
Mean Temperature 68 °F -  
Max Temperature 78 °F 74 °F 87 °F (1998)
Min Temperature 59 °F 55 °F 46 °F (2001)
Cooling Degree Days 4    
Growing Degree Days 18 (Base 50)    
Moisture  
Dew Point 65 °F    
Average Humidity 91    
Maximum Humidity 100    
Minimum Humidity 69    
Precipitation  
Precipitation 0.94 in - - ()
Sea Level Pressure  
Sea Level Pressure 30.00 in    
Wind  
Wind Speed 4 mph (East)    
Max Wind Speed 10 mph    
Max Gust Speed -    
Visibility 10 miles    
Events Rain , Thunderstorm    
Averages and records for this station are not official NWS values.
T = Trace of Precipitation, MM = Missing Value Source: NWS Daily Summary

Daily Weather History Graph

Daily Weather History Graph

Search for Another Location

Airport or City:

Astronomy

May. 23, 2019 Rise Set
Actual Time 5:56 AM CDT 8:26 PM CDT
Civil Twilight 5:25 AM CDT 8:56 PM CDT
Nautical Twilight 4:47 AM CDT 9:34 PM CDT
Astronomical Twilight 4:05 AM CDT 10:17 PM CDT
Moon 12:09 AM CDT (5/23) 10:00 AM CDT (5/23)
Length of Visible Light 15h 31m
Length of Day
14h 30m
Waning Gibbous, 77% of the Moon is Illuminated
May 23
Waning Gibbous
May 26
Last Quarter
Jun 3
New
Jun 10
First Quarter
Jun 17
Full

Hourly Weather History & Observations

Time (CDT) Temp. Dew Point Humidity Pressure Visibility Wind Dir Wind Speed Gust Speed Precip Events Conditions
12:56 AM 62.1 °F 62.1 °F 100% 29.94 in 7.0 mi East 5.8 mph - 0.94 in Rain , Thunderstorm Light Rain
1:07 AM 62.6 °F 62.6 °F 100% 29.93 in 10.0 mi ESE 4.6 mph - N/A Thunderstorm Mostly Cloudy
1:22 AM 62.6 °F 62.6 °F 100% 29.94 in 10.0 mi ESE 3.5 mph - N/A   Mostly Cloudy
1:56 AM 62.1 °F 62.1 °F 100% 29.94 in 10.0 mi Calm Calm - 0.00 in   Overcast
2:56 AM 61.2 °F 61.2 °F 100% 29.95 in 10.0 mi East 3.5 mph - N/A   Mostly Cloudy
3:56 AM 60.4 °F 60.4 °F 100% 29.94 in 10.0 mi North 3.5 mph - N/A   Mostly Cloudy
4:56 AM 59.5 °F 59.5 °F 100% 29.96 in 8.0 mi Calm Calm - N/A   Mostly Cloudy
5:56 AM 59.7 °F 59.7 °F 100% 29.97 in 7.0 mi NE 4.6 mph - N/A   Mostly Cloudy
6:56 AM 59.4 °F 59.4 °F 100% 30.00 in 8.0 mi NNE 4.6 mph - N/A   Mostly Cloudy
7:36 AM 60.8 °F 60.8 °F 100% 30.05 in 10.0 mi Calm Calm - N/A   Mostly Cloudy
7:56 AM 61.2 °F 61.2 °F 100% 30.05 in 10.0 mi Calm Calm - N/A   Mostly Cloudy
8:56 AM 62.6 °F 62.6 °F 100% 30.04 in 10.0 mi Calm Calm - N/A   Overcast
9:56 AM 63.9 °F 63.9 °F 100% 30.06 in 10.0 mi NE 6.9 mph - N/A   Overcast
10:56 AM 67.1 °F 60.3 °F 79% 30.07 in 10.0 mi NE 8.1 mph - N/A   Overcast
11:56 AM 69.4 °F 58.8 °F 69% 30.08 in 10.0 mi ENE 10.4 mph - N/A   Mostly Cloudy
12:56 PM 70.9 °F 60.6 °F 70% 30.08 in 10.0 mi East 6.9 mph - N/A   Overcast
1:56 PM 73.2 °F 64.4 °F 74% 30.05 in 10.0 mi ESE 8.1 mph - N/A   Mostly Cloudy
2:06 PM 73.4 °F 64.4 °F 73% 30.05 in 10.0 mi ENE 6.9 mph - N/A   Scattered Clouds
2:56 PM 73.6 °F 66.9 °F 80% 30.04 in 10.0 mi Calm Calm - N/A   Mostly Cloudy
3:12 PM 75.2 °F 68.0 °F 78% 30.03 in 10.0 mi South 3.5 mph - N/A   Scattered Clouds
3:58 PM 76.5 °F 68.7 °F 77% 30.01 in 10.0 mi Calm Calm - N/A   Mostly Cloudy
4:56 PM 77.7 °F 70.3 °F 78% 30.00 in 10.0 mi East 4.6 mph - N/A   Scattered Clouds
5:56 PM 78.4 °F 70.9 °F 77% 29.99 in 10.0 mi East 4.6 mph - N/A   Mostly Cloudy
6:56 PM 77.9 °F 71.6 °F 81% 29.98 in 10.0 mi ENE 5.8 mph - N/A   Mostly Cloudy
7:56 PM 74.5 °F 71.6 °F 91% 29.97 in 10.0 mi ENE 4.6 mph - N/A   Mostly Cloudy
8:56 PM 72.9 °F 71.1 °F 94% 29.95 in 10.0 mi East 4.6 mph - N/A   Mostly Cloudy
9:22 PM 71.6 °F 71.6 °F 100% 29.95 in 10.0 mi East 4.6 mph - N/A   Light Drizzle
9:23 PM 71.6 °F 71.6 °F 100% 29.95 in 10.0 mi East 5.8 mph - N/A   Partly Cloudy
9:56 PM 71.8 °F 71.8 °F 100% 29.96 in 10.0 mi ESE 4.6 mph - 0.00 in   Scattered Clouds
10:56 PM 72.0 °F 72.0 °F 100% 29.96 in 10.0 mi SE 5.8 mph - N/A   Clear
11:56 PM 71.8 °F 71.8 °F 100% 29.96 in 10.0 mi SE 4.6 mph - N/A   Partly Cloudy